THOR ABLESTAR DEB, 136

Orbit data source: Space-Track

THOR ABLESTAR DEB, 136 is space debris in LEO originally from a launch on Thu, 29 Jun 1961 UTC launched from the Air Force Eastern Test Range (AFETR). Debris objects in space refer to the collection of defunct objects orbiting the Earth. Examples of debris include non-operational satellites, rocket bodies, and fragments generated from explosions, collisions, or faulty payload assembly.

Loading next visibility...
Identifier
136, 1961-015W
Orbit
LEO
Last TLE update
7 hours ago
Origin
Manufacturer
Unknown
Mission
Spacecraft
Bus & Motor
Unknown
Mass
Unknown
Launch date (UTC)
1961-06-29 (64 years ago)
Launch vehicle
Unknown
Launch site
Air Force Eastern Test Range (AFETR)
Object type
Payload
Rocket body
Debris
Shape & HBR
Unknown
Radar Cross Section
Small (<0.1 m²)

Expand to show TLE details & history

TLE from 7 hours ago
0 THOR ABLESTAR DEB
1   136U 61015W   25130.44382521  .00001646  00000-0  53552-3 0  9993
2   136  67.5297 237.6348 0044470  35.7417 324.6655 14.40497728299273
Epoch: 2025-05-10T10:39Z
Definitive object data (Epoch: 2025-05-10T10:39:06.498Z)
Latitude
-0.00003°
Longitude
-150.62782°
Altitude
733.196 km
Speed
7.502 km/s
True Right ascension
15h 50m 32s
True Declination
0° 00' 00"
Sunlit
Object was in full shadow at TLE epoch
Visualization TLE readout
Latitude
66.41229°
Longitude
-80.95866°
Altitude
745.739 km
Speed
7.5 km/s
Apparent Right ascension
16h 05m 08s
Apparent Declination
24° 39' 02"
Sunlit
Object is in daylight
Visualization observer readout
Local Sidereal Time
01:56:17
Azimuth
329.22° NNW
Elevation
-18.795°
Doppler factor
1
Orbital elements
Apogee altitude
786.847 km
Perigee altitude
723.404 km
Semi-major axis
7,133.262 km
Eccentricity
0.004447
Inclination
67.5297°
RAAN
237.6348°
Arg. of periapsis
35.7417°
True anomaly
324.36944°
Mean anomaly
324.6655°
Eccentric anomaly
324.5176°
Mean motion
3.60256 °/min
BSTAR
0.00053552
Orbital period
99.93 mins
Loading maneuver chart data...
Loading SW <> Apogee altitude chart data...

THOR ABLESTAR DEB Visibility forecast

Observer location: undefined°, undefined°

Span
Click to sort rows by Start time (UTC) header in descending order
Start Az.
Max El. time (UTC)
Max El. Az.
Max El.
End time (UTC)
End Az.
9 mins2025-05-10 17:51:40.371Z338.559° N2025-05-10 17:55:40.371Z26.453° NE41.604°2025-05-10 18:00:40.371Z141.798° SSE
4 mins2025-05-10 19:36:40.371Z275.503° WNW2025-05-10 19:38:40.371Z249.804° W14.447°2025-05-10 19:40:40.371Z226.329° WSW
7 mins2025-05-11 08:27:40.371Z191.645° SSW2025-05-11 08:30:40.371Z111.216° ESE42.73°2025-05-11 08:34:40.371Z34.843° NE
5 mins2025-05-11 10:11:40.371Z285.129° WNW2025-05-11 10:13:40.371Z312.894° NW16.707°2025-05-11 10:16:40.371Z351.751° N
8 mins2025-05-11 17:11:40.371Z354.038° N2025-05-11 17:14:40.371Z41.803° NE32.02°2025-05-11 17:19:40.371Z123.206° SE
|